W4IND Port Saint Lucie FL US current weather conditions

sailwx.info

Wind from 137 at 2 knots gusting 10

Air temperature 32.2° C
Dewpoint 26.8° C

Last reported at 2019-Jul-16 20:08 UTC.
Time now 2019-Jul-16 21:04 UTC

Location: N 27°19' W 080°22'.
View on Google Maps.

See reports from other nearby stations

  
Tides and Currents Weather Stations Pressure Air Temp Water Temp Dewpoint Dewpoint Depression Visibility Wind Speed Wind Dir Waves Ship Positions
date/time (UTC)wind fromknots sea level pressurealtimeterstation pressurevisibilityair tempwater tempwave heightnotes
2019-Jul-16 20:08 137 2 gusting 10 32.2
2019-Jul-16 20:03 123 4 gusting 10 32.2
2019-Jul-16 19:58 097 4 gusting 9 32.8
2019-Jul-16 19:53 177 1 gusting 7 32.2
2019-Jul-16 19:48 129 2 gusting 9 32.8
2019-Jul-16 19:43 091 2 gusting 10 32.2
2019-Jul-16 19:38 126 3 gusting 6 32.2
2019-Jul-16 19:33 141 4 gusting 7 32.2
2019-Jul-16 19:28 138 4 gusting 9 32.2
2019-Jul-16 19:23 139 1 gusting 9 32.2
2019-Jul-16 19:18 158 5 gusting 9 32.2
2019-Jul-16 19:13 135 3 gusting 5 33.3
2019-Jul-16 19:08 111 0 gusting 6 32.8
2019-Jul-16 19:03 116 2 gusting 6 32.8
2019-Jul-16 18:58 133 3 gusting 5 33.3
2019-Jul-16 18:53 137 0 gusting 6 33.3
2019-Jul-16 18:48 163 1 gusting 6 32.8
2019-Jul-16 18:43 125 1 gusting 5 32.8
2019-Jul-16 18:38 161 2 gusting 8 32.8
2019-Jul-16 18:33 148 4 gusting 8 32.2
2019-Jul-16 18:28 126 3 gusting 7 32.2
2019-Jul-16 18:23 219 2 gusting 8 32.8
2019-Jul-16 18:18 147 3 gusting 6 32.8
2019-Jul-16 18:13 151 1 gusting 6 32.8
2019-Jul-16 18:08 115 1 gusting 10 32.2
2019-Jul-16 18:03 132 4 gusting 10 32.2
2019-Jul-16 17:58 149 3 gusting 9 32.2
2019-Jul-16 17:53 139 5 gusting 9 32.8
2019-Jul-16 17:48 105 4 gusting 9 32.2
2019-Jul-16 17:43 123 3 gusting 9 32.2
2019-Jul-16 17:38 163 6 gusting 8 32.2
2019-Jul-16 17:33 137 2 gusting 7 32.8
2019-Jul-16 17:28 135 1 gusting 12 32.8
2019-Jul-16 17:23 151 4 gusting 12 32.8
2019-Jul-16 17:18 149 2 gusting 7 32.8
2019-Jul-16 17:13 148 3 gusting 7 32.8
2019-Jul-16 17:08 096 2 gusting 7 32.8
2019-Jul-16 17:03 101 1 gusting 6 32.8
2019-Jul-16 16:58 115 2 gusting 6 33.3
2019-Jul-16 16:53 165 3 gusting 6 32.8
2019-Jul-16 16:48 141 1 gusting 6 33.3
2019-Jul-16 16:43 136 1 gusting 4 33.3
2019-Jul-16 16:38 130 1 gusting 4 33.3
2019-Jul-16 16:33 147 0 gusting 4 33.3
2019-Jul-16 16:28 088 32.8
2019-Jul-16 16:23 127 1 gusting 6 32.8
2019-Jul-16 16:18 110 3 gusting 6 32.8
2019-Jul-16 16:13 141 2 gusting 6 32.8
2019-Jul-16 16:08 178 0 gusting 7 32.2
2019-Jul-16 16:03 113 4 gusting 7 32.2
2019-Jul-16 15:58 094 2 gusting 7 32.2
2019-Jul-16 15:53 070 1 gusting 6 32.8
2019-Jul-16 15:48 002 1 gusting 6 32.8
2019-Jul-16 15:43 149 1 gusting 4 32.8
2019-Jul-16 15:38 170 0 gusting 6 32.8
2019-Jul-16 15:33 105 1 gusting 6 32.8
2019-Jul-16 15:28 120 0 gusting 6 32.2
2019-Jul-16 15:23 135 1 gusting 6 32.2
2019-Jul-16 15:18 137 1 gusting 6 32.2
2019-Jul-16 15:13 156 1 gusting 6 31.7
2019-Jul-16 15:08 169 1 gusting 6 32.2
2019-Jul-16 15:03 158 3 gusting 8 31.7
2019-Jul-16 14:58 120 1 gusting 8 31.7
2019-Jul-16 14:53 144 4 gusting 6 31.7
2019-Jul-16 14:48 114 1 gusting 5 31.7
2019-Jul-16 14:43 146 2 gusting 5 31.7
2019-Jul-16 14:38 163 0 gusting 4 31.7
2019-Jul-16 14:33 106 1 gusting 6 31.7
2019-Jul-16 14:28 137 1 gusting 6 31.7
2019-Jul-16 14:23 151 1 gusting 4 31.1
2019-Jul-16 14:18 133 1 gusting 6 31.7
2019-Jul-16 14:13 151 3 gusting 6 31.1
2019-Jul-16 14:08 212 2 gusting 6 31.1
2019-Jul-16 14:03 114 1 gusting 6 31.1
2019-Jul-16 13:58 128 2 gusting 6 30.6
2019-Jul-16 13:53 117 3 gusting 5 31.1
2019-Jul-16 13:43 141 1 gusting 5 31.1
2019-Jul-16 13:38 148 2 gusting 4 30.6
2019-Jul-16 13:33 163 2 gusting 5 30.6
2019-Jul-16 13:28 216 2 gusting 5 30.6
2019-Jul-16 13:23 140 2 gusting 5 30.6
2019-Jul-16 13:18 179 1 gusting 4 30.0
2019-Jul-16 13:13 127 1 gusting 4 30.0
2019-Jul-16 13:08 127 1 gusting 4 30.0
2019-Jul-16 13:03 139 2 gusting 5 30.0
2019-Jul-16 12:58 156 2 gusting 5 30.0
2019-Jul-16 12:53 144 1 gusting 5 30.0
2019-Jul-16 12:48 134 2 gusting 4 30.0
2019-Jul-16 12:43 123 0 gusting 3 30.0
2019-Jul-16 12:38 170 29.4
2019-Jul-16 12:33 194 29.4
2019-Jul-16 12:28 177 0 gusting 4 28.9
2019-Jul-16 12:23 167 0 gusting 3 28.9
2019-Jul-16 12:18 130 28.3
2019-Jul-16 12:13 149 0 gusting 2 28.3
2019-Jul-16 12:08 163 0 gusting 3 27.8
2019-Jul-16 12:03 130 0 gusting 2 27.2
2019-Jul-16 11:58 180 27.2
2019-Jul-16 11:53 208 26.7
2019-Jul-16 11:48 208 26.1
2019-Jul-16 11:43 208 26.1
2019-Jul-16 11:38 208 26.1
2019-Jul-16 11:33 208 25.6
2019-Jul-16 11:28 208 25.6
2019-Jul-16 11:23 208 25.0
2019-Jul-16 11:18 208 25.0
2019-Jul-16 11:13 208 25.0
2019-Jul-16 11:08 208 25.0
2019-Jul-16 11:03 208 25.0
2019-Jul-16 10:58 208 25.0
2019-Jul-16 10:53 208 25.0
2019-Jul-16 10:48 208 25.0
2019-Jul-16 10:43 208 25.0
2019-Jul-16 10:38 208 25.0
2019-Jul-16 10:33 208 25.0
2019-Jul-16 10:28 208 25.0
2019-Jul-16 10:23 208 25.0
2019-Jul-16 10:18 208 25.0
2019-Jul-16 10:13 208 25.0
2019-Jul-16 10:08 208 25.0
2019-Jul-16 10:03 208 25.0
2019-Jul-16 09:58 208 25.0
2019-Jul-16 09:53 208 25.0
2019-Jul-16 09:48 208 25.0
2019-Jul-16 09:43 208 25.0
2019-Jul-16 09:38 208 25.0
2019-Jul-16 09:33 208 25.0
2019-Jul-16 09:28 208 25.0
2019-Jul-16 09:23 208 25.0
2019-Jul-16 09:18 208 25.0
2019-Jul-16 09:13 208 25.0
2019-Jul-16 09:08 208 25.0
2019-Jul-16 09:03 208 25.0
2019-Jul-16 08:58 208 25.0
2019-Jul-16 08:53 208 25.0
2019-Jul-16 08:48 208 25.0
2019-Jul-16 08:43 208 25.6
2019-Jul-16 08:38 208 25.6
2019-Jul-16 08:33 208 25.0
2019-Jul-16 08:28 208 25.6
2019-Jul-16 08:23 208 25.6
2019-Jul-16 08:18 208 25.6
2019-Jul-16 08:13 208 25.6
2019-Jul-16 08:08 193 25.6
2019-Jul-16 08:03 193 25.6
2019-Jul-16 07:58 193 25.6
2019-Jul-16 07:53 193 25.6
2019-Jul-16 07:48 193 25.6
2019-Jul-16 07:43 193 25.6
2019-Jul-16 07:38 193 25.6
2019-Jul-16 07:33 193 25.6
2019-Jul-16 07:28 193 25.6
2019-Jul-16 07:23 193 26.1
2019-Jul-16 07:13 193 26.1
2019-Jul-16 07:08 193 26.1
2019-Jul-16 07:03 193 26.1
2019-Jul-16 06:58 193 26.1
2019-Jul-16 06:53 193 26.1
2019-Jul-16 06:48 193 26.1
2019-Jul-16 06:43 193 26.1
2019-Jul-16 06:38 193 26.1
2019-Jul-16 06:33 193 26.1
2019-Jul-16 06:28 193 26.1
2019-Jul-16 06:23 193 26.1
2019-Jul-16 06:18 193 26.1
2019-Jul-16 06:13 193 26.1
2019-Jul-16 06:08 193 26.1
2019-Jul-16 06:03 193 26.1
2019-Jul-16 05:58 193 26.1
2019-Jul-16 05:53 193 26.1
2019-Jul-16 05:48 193 26.7
2019-Jul-16 05:43 193 26.7
2019-Jul-16 05:38 188 26.7
2019-Jul-16 05:33 180 26.7
2019-Jul-16 05:28 180 26.7
2019-Jul-16 05:23 180 26.7
2019-Jul-16 05:18 180 27.2
2019-Jul-16 05:13 180 27.2
2019-Jul-16 05:08 180 27.2
2019-Jul-16 05:03 180 27.2
2019-Jul-16 04:58 171 27.8
2019-Jul-16 04:53 171 27.8
2019-Jul-16 04:48 171 27.8
2019-Jul-16 04:43 167 27.8
2019-Jul-16 04:38 167 27.8
2019-Jul-16 04:33 167 27.8
2019-Jul-16 04:28 166 27.8
2019-Jul-16 04:23 167 27.8
2019-Jul-16 04:18 165 28.3
2019-Jul-16 04:13 165 28.3
2019-Jul-16 04:08 190 28.3
2019-Jul-16 04:03 182 28.3
2019-Jul-16 03:58 175 28.3
2019-Jul-16 03:53 132 28.3
2019-Jul-16 03:48 184 28.3
2019-Jul-16 03:43 201 28.3
2019-Jul-16 03:38 169 28.3
2019-Jul-16 03:33 155 28.3
2019-Jul-16 03:28 189 28.3
2019-Jul-16 03:23 190 28.3
2019-Jul-16 03:18 158 28.3
2019-Jul-16 03:13 172 28.3
2019-Jul-16 03:08 195 28.3
2019-Jul-16 03:03 176 28.3
2019-Jul-16 02:58 208 28.3
2019-Jul-16 02:53 167 28.3
2019-Jul-16 02:48 167 28.3
2019-Jul-16 02:43 166 28.3
2019-Jul-16 02:38 147 28.3
2019-Jul-16 02:33 149 28.3
2019-Jul-16 02:28 201 28.3
2019-Jul-16 02:23 201 28.3
2019-Jul-16 02:18 205 28.3
2019-Jul-16 02:13 193 28.3
2019-Jul-16 02:08 167 28.3
2019-Jul-16 02:03 185 28.3
2019-Jul-16 01:58 179 28.9
2019-Jul-16 01:53 173 28.9
2019-Jul-16 01:48 141 28.9
2019-Jul-16 01:43 191 28.9
2019-Jul-16 01:38 157 28.9
2019-Jul-16 01:33 203 28.9
2019-Jul-16 01:28 203 28.9
2019-Jul-16 01:23 174 28.9
2019-Jul-16 01:18 174 28.9
2019-Jul-16 01:13 170 28.9
2019-Jul-16 01:08 190 28.9
2019-Jul-16 01:03 199 28.9
2019-Jul-16 00:58 146 28.9
2019-Jul-16 00:53 183 28.9
2019-Jul-16 00:48 184 29.4
2019-Jul-16 00:43 173 29.4
2019-Jul-16 00:38 170 29.4
2019-Jul-16 00:33 106 29.4
2019-Jul-16 00:28 156 29.4
2019-Jul-16 00:23 159 29.4
2019-Jul-16 00:18 175 29.4
2019-Jul-16 00:13 138 0 gusting 1 29.4
2019-Jul-16 00:08 172 29.4
2019-Jul-16 00:03 223 30.0
2019-Jul-15 23:58 174 30.0
2019-Jul-15 23:53 159 30.0
2019-Jul-15 23:48 137 30.0
2019-Jul-15 23:43 227 30.6
2019-Jul-15 23:38 157 0 gusting 2 30.6
2019-Jul-15 23:33 162 0 gusting 1 30.6
2019-Jul-15 23:28 155 0 gusting 3 30.6
2019-Jul-15 23:23 120 0 gusting 5 30.6
2019-Jul-15 23:18 111 1 gusting 5 30.6
2019-Jul-15 23:13 108 0 gusting 5 30.6
2019-Jul-15 23:08 140 1 gusting 6 30.6
2019-Jul-15 23:03 139 1 gusting 6 30.6
2019-Jul-15 22:58 137 2 gusting 6 31.1
2019-Jul-15 22:53 247 1 gusting 6 31.1
2019-Jul-15 22:48 140 2 gusting 5 31.1
2019-Jul-15 22:43 178 1 gusting 4 31.1
2019-Jul-15 22:38 126 1 gusting 5 31.1
2019-Jul-15 22:33 125 2 gusting 6 31.1
2019-Jul-15 22:28 148 3 gusting 6 31.7
2019-Jul-15 22:23 195 31.7
2019-Jul-15 22:18 120 0 gusting 6 31.7
2019-Jul-15 22:13 124 0 gusting 6 31.7
2019-Jul-15 22:08 163 1 gusting 4 31.7
2019-Jul-15 22:03 116 1 gusting 9 31.7
2019-Jul-15 21:58 111 3 gusting 9 31.1
2019-Jul-15 21:53 111 4 gusting 6 31.7
2019-Jul-15 21:48 120 2 gusting 6 31.7
2019-Jul-15 21:43 092 2 gusting 6 31.7
2019-Jul-15 21:38 160 0 gusting 5 32.2
2019-Jul-15 21:33 073 0 gusting 4 32.2
2019-Jul-15 21:28 143 1 gusting 4 32.2
2019-Jul-15 21:23 118 32.2
2019-Jul-15 21:18 150 3 gusting 6 31.7
2019-Jul-15 21:13 132 1 gusting 4 32.2
2019-Jul-15 21:08 108 0 gusting 6 32.2
2019-Jul-15 21:03 123 5 gusting 6 32.2
2019-Jul-15 20:58 047 1 gusting 5 32.8
2019-Jul-15 20:53 107 1 gusting 5 32.8
2019-Jul-15 20:48 269 0 gusting 7 32.2
2019-Jul-15 20:43 111 1 gusting 7 32.2
2019-Jul-15 20:38 135 0 gusting 6 32.2
2019-Jul-15 20:33 155 2 gusting 6 32.2
2019-Jul-15 20:28 092 2 gusting 6 32.2
2019-Jul-15 20:23 145 3 gusting 8 32.2
2019-Jul-15 20:18 108 4 gusting 8 32.8
2019-Jul-15 20:13 177 0 gusting 7 32.8
2019-Jul-15 20:08 251 0 gusting 7 32.8
2019-Jul-15 20:03 115 0 gusting 5 32.8
2019-Jul-15 19:58 153 1 gusting 6 33.3
2019-Jul-15 19:53 086 0 gusting 6 33.3
2019-Jul-15 19:48 098 1 gusting 7 32.8
2019-Jul-15 19:43 101 4 gusting 7 32.8
2019-Jul-15 19:38 084 0 gusting 6 33.3
2019-Jul-15 19:33 151 1 gusting 6 32.8
2019-Jul-15 19:28 186 1 gusting 8 32.2
2019-Jul-15 19:23 136 4 gusting 8 32.2
2019-Jul-15 19:18 122 2 gusting 7 32.2
2019-Jul-15 19:13 150 0 gusting 6 32.2
2019-Jul-15 19:08 130 3 gusting 7 32.2
2019-Jul-15 19:03 115 2 gusting 8 32.2
2019-Jul-15 18:58 079 1 gusting 8 32.8
2019-Jul-15 18:53 158 1 gusting 6 32.8
2019-Jul-15 18:48 132 4 gusting 6 32.2
2019-Jul-15 18:43 146 2 gusting 6 32.8
2019-Jul-15 18:38 134 0 gusting 4 33.3
2019-Jul-15 18:33 153 1 gusting 8 32.2
2019-Jul-15 18:28 138 5 gusting 8 32.2
2019-Jul-15 18:23 180 0 gusting 7 32.8
2019-Jul-15 18:18 113 3 gusting 9 32.2
2019-Jul-15 18:13 172 3 gusting 9 32.2
2019-Jul-15 18:08 137 3 gusting 9 32.2
2019-Jul-15 18:03 129 2 gusting 9 32.2
2019-Jul-15 17:58 099 3 gusting 7 32.2
2019-Jul-15 17:53 123 2 gusting 7 32.2
2019-Jul-15 17:48 119 2 gusting 9 32.2
2019-Jul-15 17:43 122 3 gusting 9 32.2
2019-Jul-15 17:38 134 2 gusting 8 32.2
2019-Jul-15 17:33 014 0 gusting 7 32.2
2019-Jul-15 17:28 122 5 gusting 8 31.7
2019-Jul-15 17:23 128 5 gusting 11 32.2
2019-Jul-15 17:18 199 5 gusting 11 31.7
2019-Jul-15 17:13 127 5 gusting 7 32.2
2019-Jul-15 17:08 127 0 gusting 7 32.2
2019-Jul-15 17:03 179 5 gusting 7 32.2
2019-Jul-15 16:58 146 2 gusting 8 32.2
2019-Jul-15 16:53 126 3 gusting 7 32.2
2019-Jul-15 16:48 139 0 gusting 7 32.2
2019-Jul-15 16:43 126 4 gusting 6 32.2
2019-Jul-15 16:38 106 3 gusting 6 32.2
2019-Jul-15 16:33 124 2 gusting 6 32.8
2019-Jul-15 16:28 131 0 gusting 4 32.2
2019-Jul-15 16:23 110 0 gusting 6 31.7
2019-Jul-15 16:18 142 1 gusting 10 31.7
2019-Jul-15 16:13 133 6 gusting 13 31.1
2019-Jul-15 16:08 122 5 gusting 13 31.7
2019-Jul-15 16:03 160 3 gusting 7 31.7
2019-Jul-15 15:58 124 4 gusting 7 31.7
2019-Jul-15 15:53 170 2 gusting 7 31.7
2019-Jul-15 15:48 132 2 gusting 8 31.7
2019-Jul-15 15:43 137 4 gusting 10 31.1
2019-Jul-15 15:38 113 5 gusting 10 31.7
2019-Jul-15 15:33 132 1 gusting 8 31.7
2019-Jul-15 15:28 137 5 gusting 7 31.7
2019-Jul-15 15:23 125 1 gusting 6 31.7
2019-Jul-15 15:18 118 1 gusting 4 32.2
2019-Jul-15 15:13 117 1 gusting 7 32.2
2019-Jul-15 15:08 243 32.2
2019-Jul-15 15:03 125 0 gusting 5 31.7
2019-Jul-15 14:58 134 2 gusting 6 31.7
2019-Jul-15 14:53 139 1 gusting 6 31.7
2019-Jul-15 14:48 134 3 gusting 6 31.7
2019-Jul-15 14:43 161 3 gusting 6 31.7
2019-Jul-15 14:38 172 2 gusting 4 32.2
2019-Jul-15 14:33 214 32.2
2019-Jul-15 14:28 126 2 gusting 4 31.7
2019-Jul-15 14:23 173 31.7
2019-Jul-15 14:18 169 31.7
2019-Jul-15 14:13 179 31.1
2019-Jul-15 14:08 125 1 gusting 6 30.6
2019-Jul-15 14:03 141 2 gusting 5 30.6
2019-Jul-15 13:58 160 0 gusting 5 30.6
2019-Jul-15 13:53 092 1 gusting 6 30.6
2019-Jul-15 13:48 142 2 gusting 6 30.6
2019-Jul-15 13:43 133 1 gusting 6 30.0
2019-Jul-15 13:38 291 0 gusting 5 30.6
2019-Jul-15 13:33 182 0 gusting 6 30.6
2019-Jul-15 13:28 142 4 gusting 6 30.0
2019-Jul-15 13:23 139 2 gusting 7 30.0
2019-Jul-15 13:18 129 2 gusting 6 30.0
2019-Jul-15 13:13 166 2 gusting 6 30.0
2019-Jul-15 13:08 094 2 gusting 6 30.0
2019-Jul-15 13:03 177 1 gusting 5 30.0
2019-Jul-15 12:58 173 2 gusting 5 30.0
2019-Jul-15 12:53 162 1 gusting 6 30.0
2019-Jul-15 12:48 099 0 gusting 4 30.0
2019-Jul-15 12:43 110 0 gusting 4 29.4
2019-Jul-15 12:38 196 0 gusting 5 29.4
2019-Jul-15 12:33 135 3 gusting 5 29.4
2019-Jul-15 12:28 202 1 gusting 3 28.9
2019-Jul-15 12:23 121 0 gusting 4 28.9
2019-Jul-15 12:18 198 28.3
2019-Jul-15 12:13 184 28.3
2019-Jul-15 12:08 189 27.8
2019-Jul-15 12:03 184 27.8
2019-Jul-15 11:58 163 27.2
2019-Jul-15 11:53 215 27.2
2019-Jul-15 11:48 215 26.7
2019-Jul-15 11:43 209 26.7
2019-Jul-15 11:38 208 26.1
2019-Jul-15 11:33 200 26.1
2019-Jul-15 11:28 200 26.1
2019-Jul-15 11:23 200 26.1
2019-Jul-15 11:18 200 25.6
2019-Jul-15 11:13 200 25.6
2019-Jul-15 11:08 200 25.6
2019-Jul-15 11:03 200 25.6
2019-Jul-15 10:58 200 25.6
2019-Jul-15 10:53 200 25.6
2019-Jul-15 10:48 200 25.6
2019-Jul-15 10:43 200 25.6
2019-Jul-15 10:38 200 25.6
2019-Jul-15 10:33 200 25.6
2019-Jul-15 10:28 200 25.6
2019-Jul-15 10:23 200 25.0
2019-Jul-15 10:18 200 25.0
2019-Jul-15 10:13 200 25.6
2019-Jul-15 10:08 200 25.6
2019-Jul-15 10:03 200 25.0
2019-Jul-15 09:58 200 25.6
2019-Jul-15 09:53 200 25.6
2019-Jul-15 09:48 200 25.6
2019-Jul-15 09:43 200 25.0
2019-Jul-15 09:38 200 25.0
2019-Jul-15 09:33 200 25.6
2019-Jul-15 09:28 200 25.6
2019-Jul-15 09:23 200 25.6
2019-Jul-15 09:18 200 25.6
2019-Jul-15 09:13 200 25.6
2019-Jul-15 09:08 200 25.6
2019-Jul-15 09:03 200 25.6
2019-Jul-15 08:58 200 25.6
2019-Jul-15 08:53 200 25.6
2019-Jul-15 08:48 200 25.6
2019-Jul-15 08:43 190 25.6
2019-Jul-15 08:38 190 25.6
2019-Jul-15 08:33 190 25.6
2019-Jul-15 08:28 190 25.6
2019-Jul-15 08:23 190 25.6
2019-Jul-15 08:18 190 25.6
2019-Jul-15 08:13 190 25.6
2019-Jul-15 08:08 190 25.6
2019-Jul-15 08:03 190 25.6
2019-Jul-15 07:58 190 25.6
2019-Jul-15 07:53 190 25.6
2019-Jul-15 07:48 190 25.6
2019-Jul-15 07:43 190 25.6
2019-Jul-15 07:38 186 25.6
2019-Jul-15 07:33 186 25.6
2019-Jul-15 07:28 186 25.6
2019-Jul-15 07:23 186 25.6
2019-Jul-15 07:18 186 25.6
2019-Jul-15 07:13 186 26.1
2019-Jul-15 07:08 186 26.1
2019-Jul-15 07:03 186 26.1
2019-Jul-15 06:58 186 26.1
2019-Jul-15 06:53 186 26.1
2019-Jul-15 06:48 186 26.1
2019-Jul-15 06:43 186 26.1
2019-Jul-15 06:38 186 26.1
2019-Jul-15 06:33 186 26.1
2019-Jul-15 06:28 186 26.7
2019-Jul-15 06:23 186 26.7
2019-Jul-15 06:18 186 26.7
2019-Jul-15 06:13 186 26.7
2019-Jul-15 06:08 186 26.7
2019-Jul-15 06:03 186 27.2
2019-Jul-15 05:58 186 27.2
2019-Jul-15 05:53 186 27.2
2019-Jul-15 05:48 186 27.2
2019-Jul-15 05:43 186 27.2
2019-Jul-15 05:38 186 27.2
2019-Jul-15 05:33 186 27.2
2019-Jul-15 05:28 186 27.2
2019-Jul-15 05:23 184 27.2
2019-Jul-15 05:18 198 27.8
2019-Jul-15 05:13 198 27.8
2019-Jul-15 05:08 179 27.8
2019-Jul-15 05:03 170 27.8
2019-Jul-15 04:58 161 27.8
2019-Jul-15 04:53 151 0 gusting 2 28.3
2019-Jul-15 04:48 158 0 gusting 2 28.3
2019-Jul-15 04:43 159 27.8
2019-Jul-15 04:38 179 27.8
2019-Jul-15 04:33 181 27.8
2019-Jul-15 04:28 179 27.8
2019-Jul-15 04:23 188 28.3
2019-Jul-15 04:18 165 27.8
2019-Jul-15 04:13 170 0 gusting 2 28.3
2019-Jul-15 04:08 153 0 gusting 2 27.8
2019-Jul-15 04:03 177 27.8
2019-Jul-15 03:58 156 27.8
2019-Jul-15 03:53 163 0 gusting 2 27.8
2019-Jul-15 03:48 183 27.8
2019-Jul-15 03:43 177 27.8
2019-Jul-15 03:38 177 27.8
2019-Jul-15 03:33 182 27.8
2019-Jul-15 03:28 182 27.8
2019-Jul-15 03:23 182 27.8
2019-Jul-15 03:18 182 27.8
2019-Jul-15 03:13 182 27.8
2019-Jul-15 03:08 182 27.8
2019-Jul-15 03:03 182 27.8
2019-Jul-15 02:58 182 27.8
2019-Jul-15 02:53 182 28.3
2019-Jul-15 02:48 182 28.3
2019-Jul-15 02:43 186 27.8
2019-Jul-15 02:38 186 28.3
2019-Jul-15 02:33 185 28.3
2019-Jul-15 02:28 186 28.3
2019-Jul-15 02:23 181 28.3
2019-Jul-15 02:18 181 28.3
2019-Jul-15 02:13 201 28.3
2019-Jul-15 02:08 191 28.3
2019-Jul-15 02:03 171 28.3
2019-Jul-15 01:58 176 28.3
2019-Jul-15 01:53 165 28.3
2019-Jul-15 01:48 186 28.3
2019-Jul-15 01:43 191 28.3
2019-Jul-15 01:38 202 28.3
2019-Jul-15 01:33 183 28.3
2019-Jul-15 01:28 183 28.3
2019-Jul-15 01:23 183 28.3
2019-Jul-15 01:18 186 28.3
2019-Jul-15 01:13 186 28.9
2019-Jul-15 01:08 163 28.9
2019-Jul-15 01:03 195 28.9
2019-Jul-15 00:58 196 28.9
2019-Jul-15 00:53 196 28.9
2019-Jul-15 00:48 177 28.9
2019-Jul-15 00:43 172 28.9
2019-Jul-15 00:38 175 28.9
2019-Jul-15 00:33 193 29.4
2019-Jul-15 00:28 172 29.4
2019-Jul-15 00:23 170 29.4
2019-Jul-15 00:18 219 29.4
2019-Jul-15 00:13 109 0 gusting 2 29.4
2019-Jul-15 00:08 153 29.4
2019-Jul-15 00:03 216 30.0
2019-Jul-14 23:58 132 30.0
2019-Jul-14 23:53 190 0 gusting 2 30.0
2019-Jul-14 23:48 271 30.6
2019-Jul-14 23:43 151 1 gusting 4 30.6
2019-Jul-14 23:38 211 30.6
2019-Jul-14 23:33 224 31.1
2019-Jul-14 23:28 167 0 gusting 3 31.1
2019-Jul-14 23:23 144 31.1
2019-Jul-14 23:18 220 31.1
2019-Jul-14 23:13 222 31.1
2019-Jul-14 23:08 226 0 gusting 3 31.1
2019-Jul-14 23:03 137 0 gusting 2 31.7
2019-Jul-14 22:58 253 31.7
2019-Jul-14 22:53 101 1 gusting 5 31.7
2019-Jul-14 22:48 359 0 gusting 5 31.7
2019-Jul-14 22:43 142 31.7
2019-Jul-14 22:38 111 0 gusting 5 31.7
2019-Jul-14 22:33 058 2 gusting 5 31.7
2019-Jul-14 22:28 089 1 gusting 5 32.2
2019-Jul-14 22:23 217 0 gusting 3 32.2
2019-Jul-14 22:18 245 32.2
2019-Jul-14 22:13 286 0 gusting 3 32.2
2019-Jul-14 22:08 132 32.8
2019-Jul-14 22:03 184 0 gusting 1 32.8
2019-Jul-14 21:58 180 32.8
2019-Jul-14 21:53 174 0 gusting 6 32.8
2019-Jul-14 21:48 174 32.8
2019-Jul-14 21:43 227 0 gusting 4 32.8
2019-Jul-14 21:38 260 32.8
2019-Jul-14 21:33 174 32.2
2019-Jul-14 21:28 176 0 gusting 5 32.2
2019-Jul-14 21:23 149 0 gusting 6 32.8
2019-Jul-14 21:18 160 0 gusting 6 32.8
2019-Jul-14 21:13 137 1 gusting 6 32.8
2019-Jul-14 21:08 087 1 gusting 6 32.8
2019-Jul-14 21:03 269 0 gusting 4 32.8